Terminal Aerodrome Forecast
Issued by NWS Shreveport, LA

Home | Current Version | Previous Version | Text Only | Print | Product List | Glossary On
Versions: 1 2 3 4 5 6 7 8 9 10 11 12 13 14 15 16 17
000
FTUS44 KSHV 101000 AAB
TAFELD
TAF AMD
KELD 101050Z 1011/1106 09003KT 6SM -RA BR FEW110
     FM101300 VRB04KT P6SM FEW020 SCT250
     FM101600 VRB04KT P6SM SCT030 SCT250
     FM102000 VRB05KT P6SM SCT040 SCT250
     FM110000 VRB03KT P6SM SCT050 SCT250=

USA.gov is the U.S. government's official web portal to all federal, state and local government web resources and services.